Hattiesburg, MS

10:46 AM CST on November 18, 2017 (GMT -0600)
Chain Municipal

Weather History for KHBG - October, 2014

Change the Weather History Date:

Sunday, October 12, 2014

  Actual Average Record
Temperature  
Mean Temperature 79 °F 68 °F  
Max Temperature 88 °F 81 °F 95 °F (1963)
Min Temperature 69 °F 56 °F 35 °F (1951)
Degree Days  
Heating Degree Days 0 1  
Month to date heating degree days 8 12  
Since 1 July heating degree days 8 14  
Cooling Degree Days 14 5  
Month to date cooling degree days 120 73  
Year to date cooling degree days 2424 2300  
Growing Degree Days 29 (Base 50)    
Moisture  
Dew Point 70 °F    
Average Humidity 75    
Maximum Humidity 100    
Minimum Humidity 50    
Precipitation  
Precipitation T in 0.10 in 1.00 in (2009)
Month to date precipitation 0.64 1.51  
Year to date precipitation 43.57 47.75  
Sea Level Pressure  
Sea Level Pressure 29.99 in    
Wind  
Wind Speed 5 mph (South)    
Max Wind Speed 15 mph    
Max Gust Speed 18 mph    
Visibility 7 miles    
Events Fog    
T = Trace of Precipitation, MM = Missing Value Source: NWS Daily Summary

Daily Weather History Graph

Daily Weather History Graph

Search for Another Location

Airport or City:

Trip Planner

Search our weather history database for the weather conditions in past years. The results will help you decide how hot, cold, wet, or windy it might be!

Date:

Astronomy

Oct. 12, 2014 Rise Set
Actual Time 6:57 AM CDT 6:28 PM CDT
Civil Twilight 6:33 AM CDT 6:52 PM CDT
Nautical Twilight 6:05 AM CDT 7:21 PM CDT
Astronomical Twilight 5:37 AM CDT 7:49 PM CDT
Moon 9:58 PM CDT (10/12) 11:07 AM CDT (10/12)
Length of Visible Light 12h 19m
Length of Day
11h 30m
Waning Gibbous, 79% of the Moon is Illuminated
Oct 12
Waning Gibbous
Oct 15
Last Quarter
Oct 23
New
Oct 30
First Quarter
Nov 6
Full

Hourly Weather History & Observations

Time (CDT) Temp. Heat Index Dew Point Humidity Pressure Visibility Wind Dir Wind Speed Gust Speed Precip Events Conditions
12:53 AM 70.0 °F - 68.0 °F 93% 30.00 in 10.0 mi Calm Calm - N/A   Clear
1:53 AM 70.0 °F - 69.1 °F 97% 30.00 in 9.0 mi Calm Calm - N/A   Clear
2:29 AM 70.0 °F - 66.9 °F 90% 30.00 in 10.0 mi Calm Calm - N/A   Scattered Clouds
2:39 AM 70.0 °F - 68.0 °F 93% 30.00 in 9.0 mi Calm Calm - N/A   Mostly Cloudy
2:53 AM 70.0 °F - 68.0 °F 93% 29.98 in 8.0 mi Calm Calm - N/A   Mostly Cloudy
3:53 AM 70.0 °F - 69.1 °F 97% 29.99 in 1.2 mi Calm Calm - N/A   Overcast
4:01 AM 71.1 °F - 70.0 °F 96% 29.99 in 0.5 mi Calm Calm - N/A Fog Fog
4:40 AM 71.1 °F - 70.0 °F 96% 30.00 in 0.2 mi Calm Calm - N/A Fog Fog
4:53 AM 71.1 °F - 71.1 °F 100% 29.99 in 0.2 mi Calm Calm - N/A Fog Fog
5:53 AM 71.1 °F - 71.1 °F 100% 30.00 in 0.5 mi SE 3.5 mph - N/A Fog Fog
6:35 AM 71.1 °F - 71.1 °F 100% 30.01 in 1.8 mi Calm Calm - N/A   Overcast
6:41 AM 72.0 °F - 71.1 °F 97% 30.01 in 3.0 mi Calm Calm - N/A   Overcast
6:53 AM 71.1 °F - 71.1 °F 100% 30.01 in 2.5 mi Calm Calm - N/A   Overcast
7:03 AM 71.1 °F - 71.1 °F 100% 30.02 in 1.0 mi SE 4.6 mph - N/A   Overcast
7:10 AM 71.1 °F - 70.0 °F 96% 30.01 in 0.5 mi Calm Calm - N/A Fog Fog
7:53 AM 72.0 °F - 71.1 °F 97% 30.01 in 4.0 mi Calm Calm - N/A   Overcast
8:53 AM 75.9 °F - 73.0 °F 91% 30.02 in 10.0 mi Variable 4.6 mph - N/A   Mostly Cloudy
9:08 AM 77.0 °F - 72.0 °F 84% 30.04 in 10.0 mi SSW 8.1 mph - N/A   Scattered Clouds
9:39 AM 79.0 °F - 73.0 °F 82% 30.03 in 10.0 mi Variable 4.6 mph - N/A   Mostly Cloudy
9:50 AM 78.8 °F - 73.4 °F 83% 30.04 in 10.0 mi SW 5.8 mph - N/A   Scattered Clouds
9:53 AM 78.1 °F - 72.0 °F 81% 30.03 in 10.0 mi SW 6.9 mph - N/A   Scattered Clouds
10:53 AM 82.0 °F 86.3 °F 71.1 °F 69% 30.02 in 10.0 mi SW 8.1 mph - N/A   Partly Cloudy
11:53 AM 84.9 °F 89.4 °F 70.0 °F 61% 30.01 in 10.0 mi South 6.9 mph - N/A   Mostly Cloudy
12:53 PM 86.0 °F 88.8 °F 66.9 °F 53% 29.99 in 10.0 mi South 9.2 mph - N/A   Scattered Clouds
1:53 PM 88.0 °F 90.7 °F 66.9 °F 49% 29.95 in 10.0 mi South 9.2 mph - N/A   Scattered Clouds
2:53 PM 86.0 °F 89.4 °F 68.0 °F 55% 29.94 in 10.0 mi SSE 6.9 mph - N/A   Scattered Clouds
3:53 PM 84.9 °F 88.8 °F 69.1 °F 59% 29.93 in 10.0 mi SSE 6.9 mph - 0.00 in   Mostly Cloudy
4:53 PM 86.0 °F 89.4 °F 68.0 °F 55% 29.92 in 10.0 mi South 9.2 mph - N/A   Partly Cloudy
5:53 PM 82.9 °F 87.0 °F 70.0 °F 65% 29.91 in 10.0 mi SSE 10.4 mph - N/A   Clear
6:53 PM 80.1 °F 82.9 °F 69.1 °F 69% 29.93 in 10.0 mi South 8.1 mph - N/A   Clear
7:53 PM 78.1 °F - 70.0 °F 76% 29.95 in 10.0 mi South 9.2 mph - N/A   Clear
8:53 PM 75.9 °F - 70.0 °F 82% 29.97 in 10.0 mi SSE 5.8 mph - N/A   Clear
9:53 PM 75.0 °F - 70.0 °F 84% 29.98 in 10.0 mi SE 5.8 mph - N/A   Clear
10:53 PM 75.0 °F - 70.0 °F 84% 29.99 in 10.0 mi SSE 5.8 mph - N/A   Clear
11:53 PM 73.0 °F - 70.0 °F 90% 29.97 in 10.0 mi SE 4.6 mph - N/A   Clear